Regional Weather Roundup
Issued by NWS

Home | Current Version | Previous Version | Text Only | Print | Product List | Glossary On
Versions: 1 2 3 4 5 6 7 8 9 10 11 12 13 14 15 16 17 18 19 20 21 22 23 24 25 26 27 28
000
ASUS45 KCYS 261710
RWRWY

WYOMING REGIONAL WEATHER ROUNDUP
NATIONAL WEATHER SERVICE CHEYENNE WY
1100 AM MDT WED APR 26 2017

NOTE:  "FAIR" INDICATES FEW OR NO CLOUDS BELOW 12,000 FEET
WITH NO SIGNIFICANT WEATHER AND/OR OBSTRUCTIONS TO VISIBILITY.

WYZ001-261800-
YELLOWSTONE NATIONAL PARK

CITY           SKY/WX    TMP DP  RH WIND       PRES   REMARKS
LK YELLOWSTONE   N/A     33  27  78 VRB5      29.78F WCI  29
W YELLOWSTONE  NOT AVBL

$$
WYZ002>013-054>058-071-098>099-261800-
NORTHERN WYOMING

CITY           SKY/WX    TMP DP  RH WIND       PRES   REMARKS
JACKSON        PTSUNNY   39  36  87 S9        29.80F WCI  33
CODY           FAIR      48  26  42 W15G23    29.73F
GREYBULL       PTSUNNY  N/A N/A N/A MISG      29.73F
WORLAND        FAIR      47  37  68 CALM      29.73F
SHERIDAN       CLOUDY    30  27  88 CALM      29.79S
BUFFALO        FAIR      30  25  81 CALM      29.75S
GILLETTE       CLOUDY    31  32 100 CALM      29.77F
HULETT         CLOUDY    30  27  86 CALM      29.81F
NEWCASTLE      CLOUDY    32  28  86 SW5       29.81F WCI  27

$$
WYZ014>020-022>026-101>103-261800-
CENTRAL WYOMING

CITY           SKY/WX    TMP DP  RH WIND       PRES   REMARKS
BIG PINEY      CLOUDY    42  25  50 NW8G17    29.81F
PINEDALE       CLOUDY    36  28  75 CALM      29.83F
DUBOIS         CLOUDY    37  28  70 N15G22    29.75F WCI  28
LANDER         PTSUNNY   47  26  44 E6        29.73F
RIVERTON       PTSUNNY   45  28  51 VRB3      29.76F
CASPER         FAIR      49  33  54 W8        29.76F
DOUGLAS        FAIR      50  33  52 W20       29.76F

$$
WYZ021-027>030-104>119-261800-
SOUTHERN WYOMING

CITY           SKY/WX    TMP DP  RH WIND       PRES   REMARKS
EVANSTON       CLOUDY    40  29  64 SW16G26   29.88F WCI  31
KEMMERER         N/A     36  30  80 W17G24    29.86S WCI  25
FORT BRIDGER   CLOUDY    43  30  62 W18G26    29.90F
ROCK SPRINGS   CLOUDY    41  31  67 W23       29.86S
DIXON          LGT RAIN  43  32  66 SW12G18   29.89S
RAWLINS        FAIR      43  24  47 W23G29    29.82S
SARATOGA       FAIR      43  28  56 W17       29.84F
LARAMIE        CLOUDY    41  23  48 W21G28    29.78F
CHEYENNE       PTSUNNY   47  24  40 NW22G30   29.77F
TORRINGTON     FAIR      47  29  49 VRB6      29.76F
PINE BLUFFS    FAIR      50  30  46 NW8G18    29.77F

$$




USA.gov is the U.S. government's official web portal to all federal, state and local government web resources and services.